| time (UTC) | temp C | wind direction | speed KPH | gust KPH | rain 1hr cm | rain 24hr cm | rain mn cm | humidity % | barometer mb |
| 20260507080030 | 1 | 278 | 0.0 | 0.0 | 0.00 | 1.45 | 0.00 | 71 | 1013.0 |
| 20260507075529 | 1 | 278 | 0.0 | 0.0 | 0.00 | 2.03 | 0.00 | 71 | 1012.9 |
| 20260507075029 | 1 | 278 | 0.0 | 0.0 | 0.00 | 2.03 | 0.00 | 71 | 1012.9 |
| 20260507074530 | 1 | 278 | 0.0 | 0.0 | 0.00 | 2.03 | 0.00 | 70 | 1013.0 |
| 20260507074027 | 1 | 278 | 0.0 | 0.0 | 0.00 | 2.03 | 0.00 | 70 | 1013.1 |
| 20260507073527 | 1 | 278 | 0.0 | 0.0 | 0.00 | 2.03 | 0.00 | 70 | 1013.1 |
| 20260507073027 | 1 | 278 | 0.0 | 0.0 | 0.00 | 2.03 | 0.00 | 70 | 1013.0 |
| 20260507072525 | 2 | 278 | 0.0 | 0.0 | 0.00 | 2.03 | 0.00 | 69 | 1013.1 |
| 20260507072023 | 2 | 278 | 0.0 | 0.0 | 0.00 | 2.03 | 0.00 | 69 | 1013.2 |
| 20260507071522 | 2 | 278 | 0.0 | 0.0 | 0.00 | 2.03 | 0.00 | 69 | 1013.0 |
| 20260507071025 | 2 | 278 | 0.0 | 0.0 | 0.00 | 2.03 | 0.00 | 69 | 1013.0 |
| 20260507070520 | 3 | 278 | 0.0 | 0.0 | 0.00 | 2.03 | 0.00 | 68 | 1012.9 |
| 20260507070017 | 3 | 278 | 0.0 | 0.0 | 0.00 | 2.03 | 0.00 | 68 | 1013.1 |
| 20260507065519 | 3 | 278 | 0.0 | 0.0 | 0.00 | 2.36 | 0.00 | 68 | 1013.0 |
| 20260507065016 | 3 | 278 | 0.0 | 0.0 | 0.00 | 2.36 | 0.00 | 67 | 1012.9 |
| 20260507064517 | 3 | 278 | 0.0 | 1.6 | 0.00 | 2.36 | 0.00 | 67 | 1012.9 |
| 20260507064014 | 4 | 278 | 0.0 | 4.8 | 0.00 | 2.36 | 0.00 | 66 | 1012.9 |
| 20260507063513 | 4 | 250 | 0.0 | 4.8 | 0.00 | 2.36 | 0.00 | 66 | 1012.9 |
| 20260507063015 | 4 | 249 | 0.0 | 3.2 | 0.00 | 2.36 | 0.00 | 67 | 1013.0 |
| 20260507062514 | 4 | 249 | 1.6 | 3.2 | 0.00 | 2.36 | 0.00 | 66 | 1012.9 |
| 20260507062012 | 4 | 284 | 0.0 | 0.0 | 0.00 | 2.36 | 0.00 | 66 | 1012.9 |
| 20260507061512 | 4 | 284 | 0.0 | 3.2 | 0.00 | 2.36 | 0.00 | 66 | 1013.0 |
| 20260507061011 | 4 | 284 | 0.0 | 3.2 | 0.00 | 2.36 | 0.00 | 65 | 1013.2 |
| 20260507060509 | 4 | 285 | 0.0 | 3.2 | 0.00 | 2.36 | 0.00 | 64 | 1013.4 |
| 20260507060009 | 4 | 294 | 0.0 | 4.8 | 0.00 | 2.36 | 0.00 | 64 | 1013.3 |
| 20260507055509 | 4 | 293 | 0.0 | 4.8 | 0.00 | 2.54 | 0.00 | 63 | 1013.3 |
| 20260507055008 | 4 | 285 | 0.0 | 4.8 | 0.00 | 2.54 | 0.00 | 63 | 1013.3 |
| 20260507054510 | 5 | 298 | 0.0 | 4.8 | 0.00 | 2.54 | 0.00 | 64 | 1013.5 |
| 20260507054010 | 5 | 297 | 1.6 | 4.8 | 0.00 | 2.54 | 0.00 | 63 | 1013.5 |
| 20260507053509 | 5 | 276 | 1.6 | 8.0 | 0.00 | 2.54 | 0.00 | 64 | 1013.5 |
| 20260507053008 | 5 | 328 | 1.6 | 8.0 | 0.00 | 2.54 | 0.00 | 63 | 1013.4 |
| 20260507052507 | 5 | 314 | 0.0 | 8.0 | 0.00 | 2.54 | 0.00 | 64 | 1013.4 |
| 20260507052007 | 5 | 291 | 3.2 | 8.0 | 0.00 | 2.54 | 0.00 | 64 | 1013.5 |
| 20260507051506 | 5 | 291 | 1.6 | 6.4 | 0.00 | 2.54 | 0.00 | 65 | 1013.6 |
| 20260507051007 | 5 | 309 | 3.2 | 8.0 | 0.00 | 2.54 | 0.00 | 65 | 1013.5 |
| 20260507050504 | 5 | 321 | 3.2 | 8.0 | 0.00 | 2.54 | 0.00 | 65 | 1013.4 |
| 20260507050004 | 5 | 294 | 1.6 | 8.0 | 0.00 | 3.25 | 0.00 | 66 | 1013.5 |
| 20260507045504 | 5 | 296 | 0.0 | 9.7 | 0.00 | 3.25 | 0.00 | 66 | 1013.6 |
| 20260507045003 | 5 | 297 | 3.2 | 9.7 | 0.00 | 3.25 | 0.00 | 66 | 1013.6 |
| 20260507044502 | 5 | 274 | 3.2 | 9.7 | 0.00 | 3.25 | 0.00 | 67 | 1013.6 |
| 20260507044002 | 5 | 292 | 3.2 | 9.7 | 0.00 | 3.25 | 0.00 | 67 | 1013.6 |
| 20260507043501 | 5 | 285 | 0.0 | 9.7 | 0.00 | 3.25 | 0.00 | 68 | 1013.6 |
| 20260507043001 | 5 | 290 | 3.2 | 9.7 | 0.00 | 3.25 | 0.00 | 67 | 1013.4 |
| 20260507042559 | 5 | 292 | 3.2 | 6.4 | 0.00 | 3.25 | 0.00 | 68 | 1013.4 |
| 20260507042059 | 5 | 313 | 3.2 | 6.4 | 0.00 | 3.25 | 0.00 | 68 | 1013.3 |
| 20260507041607 | 5 | 303 | 1.6 | 8.0 | 0.00 | 3.25 | 0.00 | 69 | 1013.3 |
| 20260507041059 | 5 | 298 | 1.6 | 11.3 | 0.00 | 3.25 | 0.00 | 69 | 1013.3 |
| 20260507040557 | 5 | 296 | 3.2 | 11.3 | 0.00 | 3.25 | 0.00 | 69 | 1013.2 |
| 20260507040104 | 5 | 297 | 3.2 | 9.7 | 0.00 | 3.25 | 0.00 | 69 | 1013.2 |
| 20260507035555 | 5 | 287 | 4.8 | 9.7 | 0.00 | 3.43 | 3.25 | 70 | 1013.1 |
| 20260507035055 | 5 | 302 | 3.2 | 9.7 | 0.00 | 3.43 | 3.25 | 70 | 1013.1 |
| 20260507034558 | 5 | 269 | 4.8 | 9.7 | 0.00 | 3.43 | 3.25 | 70 | 1013.1 |
| 20260507034053 | 5 | 269 | 4.8 | 8.0 | 0.00 | 3.43 | 3.25 | 70 | 1013.1 |
| 20260507033553 | 5 | 264 | 3.2 | 8.0 | 0.00 | 3.43 | 3.25 | 70 | 1013.1 |
| 20260507033056 | 5 | 265 | 3.2 | 9.7 | 0.00 | 3.43 | 3.25 | 70 | 1012.9 |
| 20260507032553 | 5 | 255 | 3.2 | 9.7 | 0.00 | 3.43 | 3.25 | 70 | 1012.9 |
| 20260507032052 | 5 | 266 | 3.2 | 9.7 | 0.00 | 3.43 | 3.25 | 70 | 1012.9 |
| 20260507031555 | 5 | 250 | 4.8 | 9.7 | 0.00 | 3.43 | 3.25 | 69 | 1012.9 |
| 20260507031052 | 5 | 307 | 4.8 | 9.7 | 0.00 | 3.43 | 3.25 | 70 | 1013.0 |
| 20260507030549 | 5 | 280 | 3.2 | 8.0 | 0.00 | 3.43 | 3.25 | 70 | 1012.9 |
| 20260507030053 | 5 | 231 | 1.6 | 8.0 | 0.00 | 3.43 | 3.25 | 70 | 1012.8 |
| 20260507025548 | 5 | 269 | 0.0 | 4.8 | 0.00 | 3.68 | 3.25 | 70 | 1012.8 |
| 20260507025048 | 5 | 293 | 1.6 | 11.3 | 0.00 | 3.68 | 3.25 | 70 | 1012.7 |
| 20260507024549 | 5 | 281 | 4.8 | 11.3 | 0.00 | 3.68 | 3.25 | 70 | 1012.7 |
| 20260507024048 | 5 | 286 | 4.8 | 11.3 | 0.00 | 3.68 | 3.25 | 70 | 1013.0 |
| 20260507023552 | 5 | 286 | 4.8 | 9.7 | 0.00 | 3.68 | 3.25 | 70 | 1012.8 |
| 20260507023048 | 5 | 288 | 1.6 | 11.3 | 0.00 | 3.68 | 3.25 | 70 | 1012.8 |
| 20260507022548 | 5 | 250 | 1.6 | 12.9 | 0.00 | 3.68 | 3.25 | 70 | 1012.7 |
| 20260507022048 | 5 | 281 | 3.2 | 12.9 | 0.00 | 3.68 | 3.25 | 70 | 1012.7 |
| 20260507021547 | 6 | 300 | 1.6 | 8.0 | 0.00 | 3.68 | 3.25 | 71 | 1012.8 |
| 20260507021046 | 6 | 296 | 4.8 | 8.0 | 0.00 | 3.68 | 3.25 | 70 | 1012.8 |
| 20260507020545 | 6 | 307 | 3.2 | 11.3 | 0.00 | 3.68 | 3.25 | 70 | 1012.8 |
| 20260507020056 | 6 | 288 | 4.8 | 12.9 | 0.00 | 3.68 | 3.25 | 70 | 1012.9 |
| 20260507015544 | 6 | 300 | 3.2 | 12.9 | 0.00 | 3.96 | 3.25 | 71 | 1012.9 |
| 20260507015044 | 6 | 282 | 6.4 | 12.9 | 0.00 | 3.96 | 3.25 | 70 | 1012.9 |
| 20260507014549 | 6 | 303 | 6.4 | 16.1 | 0.00 | 3.96 | 3.25 | 70 | 1012.7 |
| 20260507014043 | 6 | 315 | 9.7 | 16.1 | 0.00 | 3.96 | 3.25 | 70 | 1012.5 |
| 20260507013545 | 6 | 318 | 4.8 | 14.5 | 0.00 | 3.96 | 3.25 | 70 | 1012.7 |
| 20260507013041 | 6 | 276 | 4.8 | 9.7 | 0.00 | 3.96 | 3.25 | 70 | 1012.7 |
| 20260507012542 | 6 | 295 | 4.8 | 11.3 | 0.00 | 3.96 | 3.25 | 70 | 1012.6 |
| 20260507012041 | 6 | 302 | 4.8 | 12.9 | 0.00 | 3.96 | 3.25 | 70 | 1012.7 |
| 20260507011548 | 6 | 278 | 4.8 | 12.9 | 0.00 | 3.96 | 3.25 | 70 | 1012.7 |
| 20260507011039 | 6 | 322 | 3.2 | 12.9 | 0.00 | 3.96 | 3.25 | 70 | 1012.6 |
| 20260507010539 | 6 | 321 | 4.8 | 11.3 | 0.00 | 3.96 | 3.25 | 70 | 1012.5 |
| 20260507010038 | 6 | 283 | 4.8 | 16.1 | 0.00 | 3.96 | 3.25 | 70 | 1012.4 |
| 20260507005538 | 6 | 308 | 8.0 | 16.1 | 0.00 | 4.45 | 3.25 | 70 | 1012.3 |
| 20260507005039 | 6 | 262 | 6.4 | 14.5 | 0.00 | 4.45 | 3.25 | 69 | 1012.3 |
| 20260507004536 | 7 | 280 | 6.4 | 22.5 | 0.00 | 4.45 | 3.25 | 69 | 1012.1 |
| 20260507004035 | 7 | 283 | 11.3 | 22.5 | 0.00 | 4.45 | 3.25 | 69 | 1012.1 |
| 20260507003537 | 7 | 321 | 6.4 | 16.1 | 0.00 | 4.45 | 3.25 | 69 | 1011.9 |
| 20260507003033 | 7 | 295 | 6.4 | 16.1 | 0.00 | 4.45 | 3.25 | 69 | 1011.7 |
| 20260507002534 | 7 | 316 | 8.0 | 17.7 | 0.00 | 4.45 | 3.25 | 69 | 1011.8 |
| 20260507002033 | 7 | 304 | 9.7 | 24.1 | 0.00 | 4.45 | 3.25 | 68 | 1011.7 |
| 20260507001546 | 8 | 286 | 11.3 | 27.4 | 0.00 | 4.45 | 3.25 | 67 | 1011.8 |
| 20260507001031 | 8 | 319 | 12.9 | 27.4 | 0.00 | 4.45 | 3.25 | 68 | 1011.3 |
| 20260507000530 | 8 | 232 | 3.2 | 8.0 | 0.00 | 4.45 | 3.25 | 68 | 1011.1 |
| 20260507000029 | 8 | 240 | 0.0 | 4.8 | 0.00 | 4.45 | 3.25 | 67 | 1011.2 |
| 20260506235530 | 8 | 240 | 1.6 | 4.8 | 0.00 | 4.57 | 3.25 | 67 | 1011.2 |
| 20260506235030 | 8 | 245 | 1.6 | 3.2 | 0.00 | 4.57 | 3.25 | 67 | 1011.1 |
| 20260506234538 | 8 | 245 | 1.6 | 3.2 | 0.00 | 4.57 | 3.25 | 67 | 1011.1 |
| 20260506234029 | 8 | 249 | 0.0 | 0.0 | 0.00 | 4.57 | 3.25 | 68 | 1011.1 |
| 20260506233529 | 8 | 249 | 0.0 | 0.0 | 0.00 | 4.57 | 3.25 | 67 | 1011.0 |
| 20260506233029 | 8 | 249 | 0.0 | 0.0 | 0.00 | 4.57 | 3.25 | 67 | 1011.0 |
| 20260506232527 | 8 | 249 | 0.0 | 0.0 | 0.00 | 4.57 | 3.25 | 67 | 1010.9 |
| 20260506232027 | 8 | 249 | 0.0 | 1.6 | 0.00 | 4.57 | 3.25 | 67 | 1010.9 |
| 20260506231533 | 8 | 249 | 0.0 | 3.2 | 0.00 | 4.57 | 3.25 | 66 | 1010.9 |
| 20260506231027 | 8 | 249 | 0.0 | 3.2 | 0.00 | 4.57 | 3.25 | 66 | 1010.9 |
| 20260506230525 | 8 | 245 | 0.0 | 0.0 | 0.00 | 4.57 | 3.25 | 66 | 1010.8 |
| 20260506230025 | 8 | 245 | 0.0 | 0.0 | 0.00 | 4.57 | 3.25 | 66 | 1010.9 |
| 20260506225525 | 8 | 245 | 0.0 | 0.0 | 0.00 | 4.57 | 3.25 | 67 | 1010.8 |
| 20260506225025 | 8 | 245 | 0.0 | 0.0 | 0.00 | 4.57 | 3.25 | 66 | 1010.6 |
| 20260506224529 | 8 | 245 | 0.0 | 3.2 | 0.00 | 4.57 | 3.25 | 67 | 1010.8 |
| 20260506224024 | 8 | 245 | 0.0 | 3.2 | 0.00 | 4.57 | 3.25 | 66 | 1010.6 |
| 20260506223525 | 8 | 253 | 0.0 | 3.2 | 0.00 | 4.57 | 3.25 | 66 | 1010.6 |
| 20260506223123 | 8 | 253 | 0.0 | 4.8 | 0.00 | 4.57 | 3.25 | 66 | 1010.4 |
| 20260506222523 | 8 | 250 | 1.6 | 4.8 | 0.00 | 4.57 | 3.25 | 66 | 1010.3 |
| 20260506222023 | 8 | 254 | 0.0 | 3.2 | 0.00 | 4.57 | 3.25 | 66 | 1010.5 |
| 20260506221523 | 8 | 258 | 0.0 | 3.2 | 0.00 | 4.57 | 3.25 | 66 | 1010.3 |
| 20260506221022 | 8 | 110 | 0.0 | 3.2 | 0.00 | 4.57 | 3.25 | 65 | 1010.3 |
| 20260506220522 | 8 | 240 | 0.0 | 0.0 | 0.00 | 4.57 | 3.25 | 66 | 1010.3 |
| 20260506220022 | 8 | 240 | 0.0 | 4.8 | 0.00 | 4.57 | 3.25 | 66 | 1010.2 |
| 20260506215521 | 8 | 240 | 0.0 | 4.8 | 0.00 | 4.57 | 3.25 | 66 | 1010.4 |
| 20260506215021 | 8 | 269 | 0.0 | 1.6 | 0.00 | 4.57 | 3.25 | 66 | 1010.4 |
| 20260506214521 | 8 | 269 | 0.0 | 4.8 | 0.00 | 4.57 | 3.25 | 66 | 1010.4 |
| 20260506214020 | 8 | 262 | 1.6 | 4.8 | 0.00 | 4.57 | 3.25 | 66 | 1010.4 |
| 20260506213520 | 8 | 301 | 0.0 | 3.2 | 0.00 | 4.57 | 3.25 | 67 | 1010.4 |
| 20260506213021 | 8 | 304 | 0.0 | 6.4 | 0.00 | 4.57 | 3.25 | 67 | 1010.5 |
| 20260506212522 | 8 | 291 | 1.6 | 6.4 | 0.00 | 4.57 | 3.25 | 67 | 1010.5 |
| 20260506212018 | 8 | 283 | 0.0 | 3.2 | 0.00 | 4.57 | 3.25 | 67 | 1010.4 |
| 20260506211518 | 8 | 284 | 0.0 | 1.6 | 0.00 | 4.57 | 3.25 | 67 | 1010.3 |
| 20260506211017 | 8 | 283 | 0.0 | 3.2 | 0.00 | 4.57 | 3.25 | 68 | 1010.3 |
| 20260506210516 | 8 | 283 | 0.0 | 3.2 | 0.00 | 4.57 | 3.25 | 67 | 1010.3 |
| 20260506210018 | 7 | 311 | 1.6 | 4.8 | 0.00 | 4.57 | 3.25 | 67 | 1010.4 |
| 20260506205517 | 8 | 300 | 0.0 | 4.8 | 0.00 | 4.57 | 3.25 | 67 | 1010.3 |
| 20260506205016 | 8 | 298 | 0.0 | 0.0 | 0.00 | 4.57 | 3.25 | 68 | 1010.2 |
| 20260506204515 | 7 | 298 | 0.0 | 3.2 | 0.00 | 4.57 | 3.25 | 68 | 1010.1 |
| 20260506204018 | 7 | 298 | 0.0 | 4.8 | 0.00 | 4.57 | 3.25 | 67 | 1010.2 |
| 20260506203516 | 8 | 293 | 1.6 | 4.8 | 0.00 | 4.57 | 3.25 | 68 | 1010.2 |
| 20260506203013 | 7 | 323 | 0.0 | 6.4 | 0.00 | 4.57 | 3.25 | 68 | 1010.3 |
| 20260506202513 | 7 | 323 | 1.6 | 6.4 | 0.00 | 4.57 | 3.25 | 69 | 1010.3 |
| 20260506202013 | 7 | 326 | 0.0 | 4.8 | 0.00 | 4.57 | 3.25 | 70 | 1010.4 |
| 20260506201518 | 7 | 320 | 0.0 | 4.8 | 0.00 | 4.57 | 3.25 | 70 | 1010.4 |
| 20260506201011 | 7 | 320 | 0.0 | 4.8 | 0.00 | 4.57 | 3.25 | 69 | 1010.4 |
| 20260506200510 | 7 | 309 | 0.0 | 3.2 | 0.00 | 4.57 | 3.25 | 71 | 1010.3 |
| 20260506200012 | 7 | 323 | 0.0 | 4.8 | 0.00 | 4.57 | 3.25 | 71 | 1010.3 |
| 20260506195510 | 7 | 323 | 0.0 | 8.0 | 0.00 | 4.57 | 3.25 | 70 | 1010.3 |
| 20260506195009 | 7 | 318 | 1.6 | 8.0 | 0.00 | 4.57 | 3.25 | 70 | 1010.2 |
| 20260506194509 | 7 | 309 | 0.0 | 3.2 | 0.00 | 4.57 | 3.25 | 71 | 1010.1 |
| 20260506194008 | 7 | 326 | 0.0 | 3.2 | 0.00 | 4.57 | 3.25 | 71 | 1009.9 |
| 20260506193508 | 7 | 326 | 0.0 | 4.8 | 0.00 | 4.57 | 3.25 | 72 | 1009.9 |
| 20260506193009 | 7 | 323 | 0.0 | 4.8 | 0.00 | 4.57 | 3.25 | 72 | 1009.9 |
| 20260506192508 | 7 | 333 | 1.6 | 4.8 | 0.00 | 4.57 | 3.25 | 72 | 1010.0 |
| 20260506192008 | 7 | 339 | 0.0 | 4.8 | 0.00 | 4.57 | 3.25 | 72 | 1010.0 |
| 20260506191512 | 7 | 338 | 1.6 | 4.8 | 0.00 | 4.57 | 3.25 | 72 | 1010.1 |
| 20260506191008 | 7 | 338 | 1.6 | 8.0 | 0.00 | 4.57 | 3.25 | 72 | 1010.1 |
| 20260506190507 | 7 | 334 | 1.6 | 8.0 | 0.00 | 4.57 | 3.25 | 72 | 1010.1 |
| 20260506190007 | 7 | 345 | 3.2 | 9.7 | 0.00 | 4.57 | 3.25 | 72 | 1010.0 |
| 20260506185506 | 7 | 342 | 4.8 | 12.9 | 0.00 | 4.57 | 3.25 | 71 | 1010.1 |
| 20260506185006 | 7 | 326 | 4.8 | 12.9 | 0.00 | 4.57 | 3.25 | 71 | 1010.0 |
| 20260506184506 | 7 | 325 | 3.2 | 8.0 | 0.00 | 4.57 | 3.25 | 72 | 1009.9 |
| 20260506184005 | 7 | 311 | 0.0 | 6.4 | 0.00 | 4.57 | 3.25 | 72 | 1009.9 |
| 20260506183505 | 7 | 338 | 0.0 | 6.4 | 0.00 | 4.57 | 3.25 | 72 | 1009.8 |
| 20260506183009 | 7 | 34 | 0.0 | 6.4 | 0.00 | 4.57 | 3.25 | 72 | 1009.7 |
| 20260506182504 | 7 | 333 | 0.0 | 6.4 | 0.00 | 4.57 | 3.25 | 72 | 1009.8 |
| 20260506182007 | 7 | 335 | 1.6 | 6.4 | 0.00 | 4.57 | 3.25 | 72 | 1009.6 |
| 20260506181505 | 7 | 340 | 0.0 | 6.4 | 0.00 | 4.57 | 3.25 | 73 | 1009.7 |
| 20260506181004 | 7 | 343 | 1.6 | 8.0 | 0.00 | 4.57 | 3.25 | 72 | 1009.7 |
| 20260506180504 | 7 | 341 | 3.2 | 8.0 | 0.00 | 4.57 | 3.25 | 72 | 1009.7 |
| 20260506180004 | 7 | 347 | 4.8 | 8.0 | 0.00 | 4.57 | 3.25 | 72 | 1009.8 |
| 20260506175502 | 7 | 337 | 3.2 | 8.0 | 0.00 | 4.57 | 3.25 | 72 | 1009.9 |
| 20260506175002 | 7 | 326 | 3.2 | 8.0 | 0.00 | 4.57 | 3.25 | 72 | 1009.7 |
| 20260506174502 | 7 | 325 | 1.6 | 8.0 | 0.00 | 4.57 | 3.25 | 72 | 1009.5 |
| 20260506174003 | 7 | 346 | 3.2 | 9.7 | 0.00 | 4.57 | 3.25 | 73 | 1009.5 |
| 20260506173601 | 7 | 344 | 3.2 | 9.7 | 0.00 | 4.57 | 3.25 | 73 | 1009.4 |
| 20260506173100 | 7 | 319 | 0.0 | 8.0 | 0.00 | 4.57 | 3.25 | 74 | 1009.3 |
| 20260506172559 | 7 | 322 | 1.6 | 8.0 | 0.00 | 4.57 | 3.25 | 74 | 1009.2 |
| 20260506172059 | 7 | 319 | 0.0 | 3.2 | 0.00 | 4.57 | 3.25 | 74 | 1009.1 |
| 20260506171610 | 7 | 69 | 0.0 | 6.4 | 0.00 | 4.57 | 3.25 | 75 | 1009.1 |
| 20260506171059 | 7 | 338 | 1.6 | 6.4 | 0.00 | 4.57 | 3.25 | 76 | 1009.0 |
| 20260506170557 | 7 | 304 | 0.0 | 1.6 | 0.00 | 4.57 | 3.25 | 76 | 1009.1 |
| 20260506170103 | 7 | 278 | 0.0 | 6.4 | 0.00 | 4.57 | 3.25 | 76 | 1009.0 |
| 20260506165600 | 7 | 329 | 3.2 | 6.4 | 0.00 | 4.57 | 3.25 | 76 | 1008.9 |
| 20260506165058 | 7 | 325 | 0.0 | 6.4 | 0.00 | 4.57 | 3.25 | 76 | 1009.0 |
| 20260506164600 | 7 | 20 | 0.0 | 9.7 | 0.00 | 4.57 | 3.25 | 77 | 1008.8 |
| 20260506164157 | 7 | 341 | 3.2 | 9.7 | 0.00 | 4.57 | 3.25 | 76 | 1008.9 |
| 20260506163557 | 7 | 304 | 1.6 | 6.4 | 0.00 | 4.57 | 3.25 | 76 | 1008.9 |
| 20260506163128 | 7 | 355 | 3.2 | 6.4 | 0.00 | 4.57 | 3.25 | 76 | 1008.8 |
| 20260506162556 | 7 | 326 | 0.0 | 6.4 | 0.03 | 4.57 | 3.25 | 79 | 1008.7 |
| 20260506162059 | 7 | 330 | 1.6 | 6.4 | 0.03 | 4.57 | 3.25 | 78 | 1008.7 |
| 20260506161556 | 7 | 338 | 1.6 | 4.8 | 0.03 | 4.57 | 3.25 | 79 | 1008.8 |
| 20260506161056 | 7 | 330 | 0.0 | 3.2 | 0.05 | 4.57 | 3.25 | 79 | 1008.8 |
| 20260506160556 | 7 | 64 | 0.0 | 1.6 | 0.08 | 4.57 | 3.25 | 80 | 1008.8 |
| 20260506160056 | 6 | 64 | 0.0 | 3.2 | 0.08 | 4.57 | 3.25 | 79 | 1008.8 |
| 20260506155556 | 6 | 56 | 1.6 | 3.2 | 0.10 | 4.57 | 3.25 | 79 | 1008.8 |
| 20260506155055 | 6 | 66 | 0.0 | 3.2 | 0.10 | 4.57 | 3.25 | 79 | 1008.8 |
| 20260506154555 | 6 | 66 | 1.6 | 3.2 | 0.10 | 4.57 | 3.25 | 79 | 1008.8 |
| 20260506154057 | 6 | 66 | 0.0 | 3.2 | 0.10 | 4.57 | 3.25 | 80 | 1009.1 |
| 20260506153555 | 6 | 66 | 0.0 | 3.2 | 0.10 | 4.57 | 3.25 | 79 | 1008.8 |
| 20260506153116 | 6 | 64 | 0.0 | 3.2 | 0.13 | 4.57 | 3.25 | 79 | 1008.9 |
| 20260506152557 | 6 | 74 | 0.0 | 3.2 | 0.10 | 4.55 | 3.23 | 80 | 1008.9 |
| 20260506152054 | 6 | 74 | 0.0 | 4.8 | 0.10 | 4.55 | 3.23 | 80 | 1008.7 |
| 20260506151555 | 6 | 68 | 0.0 | 4.8 | 0.10 | 4.55 | 3.23 | 79 | 1008.7 |
| 20260506151054 | 6 | 65 | 0.0 | 3.2 | 0.08 | 4.52 | 3.20 | 79 | 1008.8 |
| 20260506150553 | 6 | 65 | 0.0 | 3.2 | 0.08 | 4.50 | 3.17 | 80 | 1008.8 |
| 20260506150053 | 6 | 65 | 0.0 | 4.8 | 0.08 | 4.50 | 3.17 | 80 | 1008.8 |
| 20260506145554 | 6 | 65 | 0.0 | 4.8 | 0.05 | 4.47 | 3.15 | 79 | 1008.8 |
| 20260506145055 | 6 | 69 | 0.0 | 3.2 | 0.05 | 4.47 | 3.15 | 79 | 1008.7 |
| 20260506144554 | 6 | 72 | 0.0 | 0.0 | 0.05 | 4.47 | 3.15 | 79 | 1008.5 |
| 20260506144053 | 6 | 79 | 0.0 | 3.2 | 0.05 | 4.47 | 3.15 | 80 | 1008.4 |
| 20260506143553 | 6 | 79 | 0.0 | 4.8 | 0.05 | 4.47 | 3.15 | 80 | 1008.4 |
| 20260506143053 | 6 | 56 | 0.0 | 4.8 | 0.03 | 4.45 | 3.12 | 80 | 1008.3 |
| 20260506142553 | 5 | 55 | 0.0 | 4.8 | 0.05 | 4.45 | 3.12 | 80 | 1008.3 |
| 20260506142053 | 5 | 40 | 1.6 | 4.8 | 0.05 | 4.45 | 3.12 | 80 | 1008.2 |
| 20260506141552 | 5 | 77 | 3.2 | 4.8 | 0.05 | 4.45 | 3.12 | 79 | 1008.1 |
| 20260506141052 | 5 | 64 | 1.6 | 8.0 | 0.05 | 4.45 | 3.12 | 80 | 1008.3 |
| 20260506140554 | 5 | 72 | 3.2 | 9.7 | 0.03 | 4.42 | 3.10 | 79 | 1008.2 |
| 20260506140052 | 5 | 37 | 3.2 | 8.0 | 0.03 | 4.42 | 3.10 | 80 | 1008.4 |
| 20260506135551 | 5 | 81 | 1.6 | 8.0 | 0.03 | 4.42 | 3.10 | 80 | 1008.3 |
| 20260506135051 | 5 | 85 | 1.6 | 12.9 | 0.03 | 4.42 | 3.10 | 80 | 1008.3 |
| 20260506134550 | 5 | 103 | 3.2 | 12.9 | 0.05 | 4.42 | 3.10 | 80 | 1008.2 |
| 20260506134050 | 5 | 37 | 3.2 | 8.0 | 0.05 | 4.42 | 3.10 | 80 | 1008.1 |
| 20260506133551 | 5 | 75 | 1.6 | 8.0 | 0.05 | 4.42 | 3.10 | 80 | 1008.3 |
| 20260506133051 | 5 | 103 | 3.2 | 11.3 | 0.08 | 4.42 | 3.10 | 80 | 1008.1 |
| 20260506132550 | 5 | 52 | 4.8 | 11.3 | 0.05 | 4.39 | 3.07 | 80 | 1008.2 |
| 20260506132049 | 5 | 53 | 1.6 | 8.0 | 0.05 | 4.39 | 3.07 | 80 | 1008.1 |
| 20260506131548 | 5 | 78 | 3.2 | 8.0 | 0.08 | 4.39 | 3.07 | 80 | 1008.1 |
| 20260506131048 | 5 | 63 | 3.2 | 8.0 | 0.08 | 4.39 | 3.07 | 80 | 1008.1 |
| 20260506130550 | 5 | 44 | 1.6 | 9.7 | 0.10 | 4.39 | 3.07 | 80 | 1008.1 |
| 20260506130047 | 5 | 70 | 1.6 | 9.7 | 0.13 | 4.39 | 3.07 | 80 | 1008.1 |
| 20260506125546 | 5 | 44 | 1.6 | 11.3 | 0.13 | 4.39 | 3.07 | 80 | 1008.1 |
| 20260506125046 | 5 | 88 | 3.2 | 11.3 | 0.13 | 4.39 | 3.07 | 80 | 1008.1 |
| 20260506124547 | 5 | 45 | 3.2 | 8.0 | 0.13 | 4.37 | 3.05 | 80 | 1008.3 |
| 20260506124045 | 5 | 75 | 1.6 | 9.7 | 0.15 | 4.37 | 3.05 | 80 | 1008.3 |
| 20260506123545 | 5 | 66 | 4.8 | 9.7 | 0.15 | 4.37 | 3.05 | 80 | 1008.2 |
| 20260506123048 | 5 | 96 | 3.2 | 8.0 | 0.15 | 4.34 | 3.02 | 80 | 1008.4 |
| 20260506122547 | 5 | 56 | 4.8 | 14.5 | 0.18 | 4.34 | 3.02 | 80 | 1008.4 |
| 20260506122043 | 5 | 56 | 4.8 | 14.5 | 0.20 | 4.34 | 3.02 | 80 | 1008.5 |
| 20260506121553 | 5 | 55 | 4.8 | 14.5 | 0.18 | 4.32 | 3.00 | 80 | 1008.4 |
| 20260506121043 | 5 | 61 | 3.2 | 8.0 | 0.18 | 4.32 | 3.00 | 80 | 1008.3 |
| 20260506120543 | 5 | 70 | 1.6 | 6.4 | 0.18 | 4.29 | 2.97 | 80 | 1008.4 |
| 20260506120043 | 5 | 75 | 3.2 | 8.0 | 0.15 | 4.27 | 2.92 | 80 | 1008.2 |
| 20260506115542 | 5 | 103 | 0.0 | 8.0 | 0.18 | 4.27 | 2.92 | 80 | 1008.4 |
| 20260506115044 | 5 | 61 | 3.2 | 11.3 | 0.18 | 4.27 | 2.92 | 80 | 1008.1 |
| 20260506114543 | 5 | 49 | 3.2 | 11.3 | 0.18 | 4.24 | 2.90 | 80 | 1008.0 |
| 20260506114042 | 5 | 53 | 3.2 | 11.3 | 0.15 | 4.22 | 2.87 | 80 | 1008.0 |
| 20260506113542 | 5 | 116 | 4.8 | 16.1 | 0.18 | 4.22 | 2.87 | 80 | 1007.9 |
| 20260506113041 | 5 | 49 | 4.8 | 16.1 | 0.18 | 4.19 | 2.84 | 80 | 1007.8 |
| 20260506112541 | 5 | 25 | 4.8 | 12.9 | 0.20 | 4.17 | 2.84 | 80 | 1007.8 |
| 20260506112039 | 5 | 104 | 4.8 | 12.9 | 0.20 | 4.14 | 2.82 | 80 | 1007.9 |
| 20260506111539 | 5 | 38 | 4.8 | 12.9 | 0.23 | 4.14 | 2.82 | 80 | 1007.8 |
| 20260506111038 | 5 | 56 | 4.8 | 12.9 | 0.25 | 4.14 | 2.82 | 80 | 1007.8 |
| 20260506110539 | 5 | 50 | 6.4 | 12.9 | 0.25 | 4.11 | 2.79 | 80 | 1008.0 |
| 20260506110042 | 5 | 88 | 4.8 | 11.3 | 0.28 | 4.11 | 2.79 | 80 | 1007.8 |
| 20260506105537 | 5 | 55 | 4.8 | 8.0 | 0.30 | 4.09 | 2.77 | 80 | 1007.8 |
| 20260506105037 | 5 | 74 | 0.0 | 8.0 | 0.36 | 4.09 | 2.77 | 80 | 1007.9 |
| 20260506104537 | 5 | 67 | 1.6 | 8.0 | 0.38 | 4.06 | 2.74 | 80 | 1007.9 |
| 20260506104036 | 5 | 60 | 1.6 | 6.4 | 0.48 | 4.06 | 2.74 | 80 | 1007.9 |
| 20260506103537 | 5 | 70 | 4.8 | 9.7 | 0.53 | 4.04 | 2.72 | 80 | 1007.9 |
| 20260506103036 | 5 | 53 | 3.2 | 9.7 | 0.53 | 4.01 | 2.69 | 80 | 1008.0 |
| 20260506102536 | 5 | 58 | 1.6 | 6.4 | 0.48 | 3.96 | 2.64 | 80 | 1008.2 |
| 20260506102039 | 5 | 50 | 0.0 | 9.7 | 0.48 | 3.94 | 2.62 | 80 | 1008.2 |
| 20260506101536 | 5 | 87 | 0.0 | 9.7 | 0.48 | 3.91 | 2.59 | 80 | 1008.1 |
| 20260506101035 | 5 | 58 | 0.0 | 12.9 | 0.48 | 3.89 | 2.57 | 80 | 1008.0 |
| 20260506100535 | 5 | 77 | 3.2 | 12.9 | 0.46 | 3.86 | 2.54 | 80 | 1007.9 |
| 20260506100037 | 6 | 48 | 4.8 | 11.3 | 0.48 | 3.84 | 2.51 | 80 | 1007.7 |
| 20260506095534 | 6 | 56 | 3.2 | 11.3 | 0.46 | 3.78 | 2.46 | 79 | 1007.8 |
| 20260506095034 | 6 | 56 | 4.8 | 9.7 | 0.41 | 3.73 | 2.41 | 80 | 1007.8 |
| 20260506094532 | 6 | 27 | 1.6 | 8.0 | 0.38 | 3.68 | 2.36 | 80 | 1007.8 |
| 20260506094032 | 6 | 41 | 3.2 | 8.0 | 0.28 | 3.58 | 2.26 | 80 | 1007.6 |
| 20260506093530 | 6 | 68 | 0.0 | 14.5 | 0.23 | 3.51 | 2.18 | 80 | 1007.8 |
| 20260506093030 | 6 | 66 | 0.0 | 14.5 | 0.23 | 3.48 | 2.16 | 80 | 1007.5 |
| 20260506092532 | 6 | 68 | 3.2 | 11.3 | 0.23 | 3.45 | 2.13 | 80 | 1007.4 |
| 20260506092030 | 6 | 84 | 4.8 | 11.3 | 0.25 | 3.45 | 2.13 | 80 | 1007.3 |
| 20260506091530 | 6 | 101 | 6.4 | 14.5 | 0.23 | 3.43 | 2.11 | 80 | 1007.3 |
| 20260506091029 | 6 | 97 | 1.6 | 14.5 | 0.23 | 3.40 | 2.08 | 80 | 1007.6 |
| 20260506090527 | 6 | 103 | 8.0 | 14.5 | 0.23 | 3.38 | 2.06 | 80 | 1007.5 |
| 20260506090027 | 6 | 44 | 0.0 | 11.3 | 0.23 | 3.35 | 2.03 | 80 | 1007.8 |
| 20260506085526 | 6 | 37 | 4.8 | 11.3 | 0.25 | 3.33 | 2.01 | 80 | 1007.8 |
| 20260506085026 | 6 | 78 | 3.2 | 19.3 | 0.28 | 3.33 | 2.01 | 80 | 1007.7 |
| 20260506084535 | 6 | 89 | 3.2 | 16.1 | 0.28 | 3.30 | 1.98 | 80 | 1007.5 |
| 20260506084026 | 6 | 66 | 8.0 | 16.1 | 0.30 | 3.30 | 1.98 | 80 | 1007.4 |
| 20260506083529 | 6 | 65 | 8.0 | 16.1 | 0.33 | 3.28 | 1.96 | 80 | 1007.6 |
| 20260506083030 | 6 | 63 | 6.4 | 12.9 | 0.36 | 3.25 | 1.93 | 80 | 1007.7 |
| 20260506082528 | 7 | 21 | 3.2 | 12.9 | 0.38 | 3.23 | 1.91 | 80 | 1007.9 |
| 20260506082023 | 7 | 57 | 3.2 | 12.9 | 0.38 | 3.20 | 1.88 | 80 | 1008.0 |
| 20260506081522 | 7 | 66 | 4.8 | 11.3 | 0.43 | 3.20 | 1.88 | 80 | 1007.9 |
| 20260506081022 | 7 | 54 | 1.6 | 9.7 | 0.46 | 3.17 | 1.85 | 80 | 1008.0 |
| 20260506080521 | 7 | 41 | 1.6 | 9.7 | 0.46 | 3.12 | 1.80 | 80 | 1008.1 |